This demonstration page uses our WeatherBlox Daily Observations layout. Learn more.

Left ArrowRight Arrow

44.89941, -97.11507

Hourly Observations for September 4, 2018

Temp ( °F °C ) Dew Point ( °F °C ) Humidity (%) Winds ( mph kmh ) Pressure ( in mb ) Visibility ( mi km ) Precip ( " mm )
12:53 am 00:53 Mostly Clear 68 20 68 20 100 100 S 8 13 29.96 1015 10 16 0.00 0.00
1:09 am 01:09 Mostly Cloudy 68 20 68 20 100 100 SSE 9 15 29.94 1014 10 16 0.00 0.00
1:53 am 01:53 Mostly Cloudy 68 20 67 19.4 96 96 SSE 10 17 29.97 1015 10 16 0.00 0.00
2:53 am 02:53 Cloudy 67 19.4 67 19.4 100 100 SSE 6 9 29.95 1014 10 16 0.00 0.00
3:04 am 03:04 Cloudy 67 19.4 67 19.4 100 100 SSE 7 11 29.94 1014 10 16 0.00 0.00
3:19 am 03:19 Cloudy 67 19.4 67 19.4 100 100 SE 8 13 29.94 1014 8 13 0.00 0.00
3:53 am 03:53 Cloudy 68 20 68 20 100 100 SSE 7 11 29.95 1014 8 13 0.00 0.00
4:08 am 04:08 Cloudy 68 20 68 20 100 100 SSE 7 11 29.94 1014 8 13 0.00 0.00
4:16 am 04:16 Cloudy 68 20 68 20 100 100 S 8 13 29.94 1014 8 13 0.00 0.00
4:53 am 04:53 Cloudy 68 20 68 20 100 100 SSE 8 13 29.96 1014 9 14 0.00 0.03
5:00 am 05:00 Cloudy 68 20 68 20 100 100 S 9 15 29.94 1014 9 14 0.00 0.00
5:19 am 05:19 Cloudy 68 20 68 20 100 100 S 9 15 29.94 1014 8 13 0.00 0.00
5:53 am 05:53 Cloudy 68 20 68 20 100 100 S 8 13 29.95 1014 10 16 0.00 0.00
6:53 am 06:53 Mostly Cloudy 68 20 68 20 100 100 S 8 13 29.95 1014 10 16 0.00 0.00
7:11 am 07:11 Mostly Cloudy 68 20 68 20 100 100 S 7 11 29.94 1014 10 16 0.00 0.00
7:15 am 07:15 Partly Cloudy 68 20 68 20 100 100 S 8 13 29.94 1014 10 16 0.00 0.00
7:43 am 07:43 Mostly Cloudy 68 20 68 20 100 100 S 7 11 29.94 1014 10 16 0.00 0.00
7:53 am 07:53 Mostly Cloudy 68 20 68 20 100 100 S 7 11 29.96 1014 10 16 0.00 0.00
8:10 am 08:10 Cloudy 69 20.6 68 20 96 96 S 9 15 29.91 1013 10 16 0.00 0.00
8:53 am 08:53 Mostly Cloudy 69 20.6 69 20.6 100 100 S 10 17 29.96 1014 10 16 0.00 0.00
9:00 am 09:00 Mostly Cloudy 70 21.1 69 20.6 97 97 S 8 13 29.91 1013 10 16 0.00 0.00
9:53 am 09:53 Partly Cloudy 72 22.2 69 20.6 91 91 S 10 17 29.95 1014 10 16 0.00 0.00
10:23 am 10:23 Mostly Cloudy 72 22.2 69 20.6 91 91 SSW 10 17 29.91 1013 10 16 0.00 0.00
10:34 am 10:34 Mostly Cloudy 72 22.2 70 21.1 94 94 SSW 12 19 29.91 1013 10 16 0.00 0.00
10:41 am 10:41 Mostly Cloudy 72 22.2 70 21.1 94 94 SSW 13 20 29.91 1013 10 16 0.00 0.00
10:53 am 10:53 Mostly Cloudy 72 22.2 69 20.6 91 91 SSW 13 20 29.98 1015 10 16 0.00 0.00
11:18 am 11:18 Cloudy 72 22.2 69 20.6 91 91 SSW 7 11 29.91 1013 10 16 0.00 0.00
11:53 am 11:53 Mostly Cloudy 73 22.8 69 20.6 87 87 S 7 11 30.00 1016 10 16 0.00 0.00
12:10 pm 12:10 Mostly Cloudy 73 22.8 69 20.6 87 87 SSW 7 11 29.94 1014 10 16 0.00 0.00
12:53 pm 12:53 Partly Cloudy 73 22.8 69 20.6 87 87 S 7 11 29.98 1015 10 16 0.00 0.00
1:26 pm 13:26 Mostly Cloudy 73 22.8 70 21.1 90 90 S 8 13 29.91 1013 10 16 0.00 0.00
1:33 pm 13:33 Partly Cloudy 73 22.8 69 20.6 87 87 S 7 11 29.91 1013 10 16 0.00 0.00
1:42 pm 13:42 Mostly Cloudy 73 22.8 70 21.1 90 90 S 7 11 29.91 1013 10 16 0.00 0.00
1:53 pm 13:53 Mostly Cloudy 73 22.8 70 21.1 90 90 S 7 11 29.97 1015 10 16 0.00 0.00
2:05 pm 14:05 Cloudy 73 22.8 70 21.1 90 90 SSE 9 15 29.91 1013 10 16 0.00 0.00
2:19 pm 14:19 Mostly Cloudy 73 22.8 70 21.1 90 90 S 7 11 29.91 1013 10 16 0.00 0.00
2:30 pm 14:30 Partly Cloudy 73 22.8 70 21.1 90 90 SSE 9 15 29.91 1013 10 16 0.00 0.00
2:53 pm 14:53 Partly Cloudy 73 22.8 70 21.1 90 90 SSE 9 15 29.97 1015 10 16 0.00 0.00
3:34 pm 15:34 Cloudy 73 22.8 70 21.1 90 90 SSE 6 9 29.91 1013 10 16 0.00 0.00
3:53 pm 15:53 Cloudy 73 22.8 70 21.1 90 90 SSE 7 11 29.95 1014 10 16 0.00 0.00
4:53 pm 16:53 Partly Cloudy 74 23.3 69 20.6 85 85 Calm 29.94 1014 10 16 0.00 0.00
5:53 pm 17:53 Sunny 74 23.3 69 20.6 85 85 Calm 29.94 1014 10 16 0.00 0.00
6:45 pm 18:45 Partly Cloudy with Nearby Thunderstorms 73 22.8 70 21.1 90 90 N 6 9 29.91 1013 10 16 0.00 0.00
6:53 pm 18:53 Partly Cloudy with Nearby Thunderstorms 73 22.8 70 21.1 90 90 NW 5 7 29.95 1014 10 16 0.00 0.00
7:00 pm 19:00 Partly Cloudy 72 22.2 70 21.1 94 94 NW 6 9 29.91 1013 10 16 0.00 0.00
7:14 pm 19:14 Mostly Cloudy with Rain 70 21.1 69 20.6 97 97 N 12 19 29.91 1013 3 5 0.03 0.76
7:20 pm 19:20 Mostly Cloudy with Light Rain 70 21.1 69 20.6 97 97 NNE 12 19 29.91 1013 6 10 0.03 0.76
7:53 pm 19:53 Cloudy 68 20 68 20 100 100 N 13 20 29.98 1015 10 16 0.03 0.76
8:22 pm 20:22 Mostly Cloudy 67 19.4 66 18.9 97 97 N 12 19 29.94 1014 10 16 0.00 0.00
8:32 pm 20:32 Partly Cloudy 67 19.4 66 18.9 97 97 N 13 20 29.94 1014 10 16 0.00 0.00
8:53 pm 20:53 Mostly Cloudy 67 19.4 65 18.3 93 93 N 13 20 30.00 1016 10 16 0.00 0.00
9:40 pm 21:40 Mostly Cloudy 67 19.4 64 17.8 91 91 N 12 19 29.97 1015 10 16 0.00 0.00
9:53 pm 21:53 Cloudy 67 19.4 64 17.8 91 91 N 9 15 30.02 1017 10 16 0.00 0.00
10:53 pm 22:53 Cloudy 67 19.4 63 17.2 87 87 N 12 19 30.04 1017 10 16 0.00 0.00
11:53 pm 23:53 Cloudy 65 18.3 53 11.7 66 66 N 13 20 30.05 1018 10 16 0.00 0.00

Powered by AerisWeather